Location: Unspecified
(40.9447°N, 78.9903°W)
Time: 11:31:03
(UTC-04:00)

N. Korean satellite - Visible Passes

Search period start: 19 October 2019 00:00
Search period end: 29 October 2019 00:00
Orbit: 455 x 508 km, 97.2° (Epoch: 19 October)

Date Brightness Start Highest point End Pass type
(mag) Time Alt. Az. Time Alt. Az. Time Alt. Az.
20 Oct 9.9 19:16:38 10° SW 19:18:59 17° W 19:21:21 10° NW visible
21 Oct 8.7 06:41:50 10° NNE 06:45:09 33° E 06:48:30 10° SSE visible
21 Oct 8.4 18:50:22 10° SSW 18:53:33 36° W 18:56:46 10° NNW visible
22 Oct 10.0 06:17:20 10° NE 06:19:44 16° E 06:22:07 10° SE visible
23 Oct 10.5 19:36:00 10° W 19:36:35 10° W 19:37:10 10° W visible
24 Oct 7.4 06:59:03 10° NNE 07:02:40 57° E 07:06:18 10° S visible
24 Oct 9.5 19:08:22 10° SSW 19:11:04 22° W 19:13:48 10° NW visible
25 Oct 9.1 06:34:08 10° NE 06:37:17 27° E 06:40:28 10° SSE visible
25 Oct 7.8 18:42:20 10° S 18:45:39 47° W 18:49:01 10° NNW visible
26 Oct 10.2 06:09:56 10° ENE 06:11:50 13° E 06:13:44 10° ESE visible
27 Oct 10.1 19:26:54 10° WSW 19:28:37 13° W 19:30:20 10° WNW visible
28 Oct 8.0 06:51:14 10° NNE 06:54:47 45° E 06:58:21 10° S visible
28 Oct 9.0 19:00:08 10° SSW 19:03:07 27° W 19:06:09 10° NW visible
